AAL1151 KATL-KMIA

Flight info

Callsign AAL1151
Flight time 1h 25m
Altitude 35000
Route BANNG3 LUCKK HONID FROGZ4
Aircraft A321/M-SDE3FGHIRWY/LB1

Departure

Time 2026-05-03 21:36
Airport Hartsfield Jackson Atlanta International Airport (KATL)

Arrival

Time 2026-05-03 23:02
Airport Miami International Airport (KMIA)
Time Latitude Longitude Altitude Speed Heading
2026-05-03 21:09 33.64263 -84.44190 1007 ft 0 kts 270°
2026-05-03 21:20 33.64263 -84.44189 1006 ft 1 kts 270°
2026-05-03 21:20 33.64262 -84.44169 1006 ft 3 kts 271°
2026-05-03 21:21 33.64262 -84.44145 1006 ft 3 kts 265°
2026-05-03 21:21 33.64265 -84.44124 1006 ft 3 kts 234°
2026-05-03 21:21 33.64272 -84.44114 1006 ft 1 kts 181°
2026-05-03 21:21 33.64274 -84.44114 1006 ft 0 kts 178°
2026-05-03 21:26 33.64273 -84.44114 1006 ft 0 kts 178°
2026-05-03 21:26 33.64252 -84.44114 1006 ft 6 kts 181°
2026-05-03 21:26 33.64184 -84.44115 1006 ft 11 kts 180°
2026-05-03 21:27 33.64104 -84.44116 1006 ft 12 kts 180°
2026-05-03 21:27 33.64020 -84.44116 1006 ft 12 kts 180°
2026-05-03 21:27 33.63931 -84.44115 1006 ft 13 kts 180°
2026-05-03 21:27 33.63837 -84.44116 1006 ft 14 kts 180°
2026-05-03 21:28 33.63741 -84.44115 1006 ft 14 kts 180°
2026-05-03 21:28 33.63668 -84.44067 1007 ft 13 kts 110°
2026-05-03 21:28 33.63664 -84.43954 1006 ft 15 kts 90°
2026-05-03 21:28 33.63663 -84.43818 1006 ft 17 kts 90°
2026-05-03 21:29 33.63663 -84.43724 1006 ft 17 kts 90°
2026-05-03 21:29 33.63664 -84.43578 1006 ft 18 kts 90°
2026-05-03 21:29 33.63663 -84.43430 1006 ft 18 kts 90°
2026-05-03 21:29 33.63664 -84.43275 1006 ft 19 kts 90°
2026-05-03 21:30 33.63663 -84.43127 1006 ft 18 kts 89°
2026-05-03 21:30 33.63664 -84.42973 1006 ft 19 kts 90°
2026-05-03 21:30 33.63663 -84.42819 1006 ft 18 kts 91°
2026-05-03 21:30 33.63654 -84.42673 1007 ft 18 kts 89°
2026-05-03 21:31 33.63655 -84.42526 1007 ft 17 kts 90°
2026-05-03 21:31 33.63654 -84.42381 1007 ft 18 kts 90°
2026-05-03 21:31 33.63655 -84.42238 1007 ft 15 kts 90°
2026-05-03 21:31 33.63616 -84.42122 1007 ft 15 kts 120°
2026-05-03 21:32 33.63581 -84.42001 1006 ft 16 kts 93°
2026-05-03 21:32 33.63581 -84.41865 1006 ft 17 kts 90°
2026-05-03 21:32 33.63581 -84.41723 1006 ft 17 kts 90°
2026-05-03 21:32 33.63581 -84.41577 1006 ft 18 kts 90°
2026-05-03 21:33 33.63580 -84.41425 1005 ft 19 kts 89°
2026-05-03 21:33 33.63582 -84.41269 1006 ft 19 kts 89°
2026-05-03 21:33 33.63581 -84.41117 1006 ft 18 kts 90°
2026-05-03 21:33 33.63581 -84.40986 1006 ft 13 kts 90°
2026-05-03 21:34 33.63581 -84.40953 1006 ft 0 kts 90°
2026-05-03 21:34 33.63580 -84.40949 1006 ft 3 kts 92°
2026-05-03 21:34 33.63548 -84.40911 1006 ft 11 kts 167°
2026-05-03 21:34 33.63474 -84.40925 1007 ft 8 kts 237°
2026-05-03 21:35 33.63471 -84.40961 1007 ft 0 kts 270°
2026-05-03 21:35 33.63471 -84.40970 1007 ft 6 kts 270°
2026-05-03 21:35 33.63471 -84.41321 1006 ft 77 kts 270°
2026-05-03 21:35 33.63473 -84.42212 1007 ft 135 kts 270°
2026-05-03 21:36 33.63474 -84.43522 1030 ft 176 kts 269°
2026-05-03 21:36 33.63483 -84.45013 1626 ft 178 kts 271°
2026-05-03 21:36 33.63486 -84.46500 2337 ft 179 kts 271°
2026-05-03 21:36 33.63481 -84.48014 2942 ft 186 kts 270°
2026-05-03 21:37 33.63475 -84.49670 3144 ft 206 kts 271°
2026-05-03 21:37 33.63471 -84.51484 3296 ft 230 kts 271°
2026-05-03 21:37 33.63469 -84.53494 3565 ft 250 kts 270°
2026-05-03 21:37 33.63465 -84.55621 4174 ft 257 kts 271°
2026-05-03 21:38 33.63461 -84.57765 4925 ft 259 kts 270°
2026-05-03 21:38 33.63459 -84.59942 5659 ft 262 kts 271°
2026-05-03 21:38 33.63451 -84.62141 6377 ft 266 kts 269°
2026-05-03 21:38 33.63070 -84.64328 7037 ft 273 kts 248°
2026-05-03 21:39 33.61946 -84.66183 7693 ft 281 kts 222°
2026-05-03 21:39 33.60203 -84.67261 8331 ft 289 kts 194°
2026-05-03 21:39 33.58188 -84.67245 8982 ft 296 kts 166°
2026-05-03 21:39 33.56217 -84.66476 9629 ft 300 kts 162°
2026-05-03 21:40 33.54239 -84.65655 10256 ft 304 kts 162°
2026-05-03 21:40 33.52166 -84.64796 10411 ft 326 kts 162°
2026-05-03 21:40 33.49953 -84.63886 10537 ft 346 kts 162°
2026-05-03 21:40 33.47623 -84.62933 10831 ft 359 kts 163°
2026-05-03 21:41 33.45240 -84.61962 11377 ft 364 kts 163°
2026-05-03 21:41 33.42836 -84.60987 11988 ft 367 kts 163°
2026-05-03 21:41 33.40404 -84.60003 12613 ft 370 kts 163°
2026-05-03 21:41 33.37960 -84.59014 13240 ft 373 kts 163°
2026-05-03 21:42 33.35492 -84.58014 13864 ft 376 kts 163°
2026-05-03 21:42 33.33006 -84.57003 14401 ft 379 kts 163°
2026-05-03 21:42 33.30504 -84.55988 14938 ft 381 kts 164°
2026-05-03 21:42 33.27981 -84.54969 15482 ft 384 kts 164°
2026-05-03 21:43 33.25445 -84.53947 16020 ft 387 kts 164°
2026-05-03 21:43 33.22882 -84.52912 16568 ft 389 kts 164°
2026-05-03 21:43 33.20274 -84.51859 17122 ft 392 kts 164°
2026-05-03 21:43 33.17685 -84.50814 17654 ft 395 kts 164°
2026-05-03 21:44 33.15076 -84.49763 18195 ft 397 kts 164°
2026-05-03 21:44 33.12449 -84.48704 18684 ft 400 kts 165°
2026-05-03 21:44 33.09799 -84.47638 19144 ft 402 kts 165°
2026-05-03 21:44 33.07143 -84.46569 19613 ft 405 kts 165°
2026-05-03 21:45 33.04464 -84.45492 20074 ft 407 kts 165°
2026-05-03 21:45 33.01773 -84.44412 20552 ft 410 kts 165°
2026-05-03 21:45 32.99063 -84.43326 21015 ft 412 kts 165°
2026-05-03 21:45 32.96304 -84.42421 21455 ft 411 kts 173°
2026-05-03 21:46 32.93473 -84.42070 21883 ft 408 kts 182°
2026-05-03 21:46 32.90624 -84.42020 22302 ft 410 kts 183°
2026-05-03 21:46 32.87763 -84.41972 22725 ft 413 kts 183°
2026-05-03 21:46 32.84886 -84.41922 23144 ft 415 kts 183°
2026-05-03 21:47 32.81998 -84.41869 23555 ft 417 kts 183°
2026-05-03 21:47 32.79094 -84.41811 23916 ft 419 kts 183°
2026-05-03 21:47 32.76167 -84.41749 24263 ft 420 kts 184°
2026-05-03 21:47 32.73241 -84.41687 24614 ft 422 kts 184°
2026-05-03 21:48 32.70305 -84.41626 24967 ft 423 kts 184°
2026-05-03 21:48 32.67359 -84.41569 25311 ft 424 kts 184°
2026-05-03 21:48 32.64405 -84.41513 25655 ft 425 kts 184°
2026-05-03 21:48 32.61438 -84.41453 25991 ft 427 kts 184°
2026-05-03 21:49 32.58467 -84.41390 26317 ft 428 kts 185°
2026-05-03 21:49 32.55482 -84.41330 26644 ft 429 kts 185°
2026-05-03 21:49 32.52492 -84.41270 26971 ft 431 kts 185°
2026-05-03 21:49 32.49498 -84.41214 27298 ft 432 kts 185°
2026-05-03 21:50 32.46446 -84.41155 27604 ft 433 kts 185°
2026-05-03 21:50 32.43468 -84.41097 27908 ft 434 kts 185°
2026-05-03 21:50 32.40400 -84.41038 28221 ft 436 kts 185°
2026-05-03 21:50 32.37361 -84.40974 28506 ft 437 kts 186°
2026-05-03 21:51 32.34322 -84.40908 28808 ft 438 kts 186°
2026-05-03 21:51 32.31275 -84.40841 29104 ft 439 kts 186°
2026-05-03 21:51 32.28207 -84.40775 29389 ft 441 kts 186°
2026-05-03 21:51 32.25133 -84.40711 29674 ft 442 kts 186°
2026-05-03 21:52 32.22056 -84.40646 30017 ft 442 kts 186°
2026-05-03 21:52 32.18997 -84.40582 30409 ft 440 kts 186°
2026-05-03 21:52 32.15941 -84.40519 30769 ft 437 kts 187°
2026-05-03 21:52 32.12907 -84.40460 31131 ft 435 kts 187°
2026-05-03 21:53 32.09888 -84.40405 31484 ft 433 kts 187°
2026-05-03 21:53 32.06883 -84.40350 31844 ft 431 kts 187°
2026-05-03 21:53 32.03893 -84.40289 32196 ft 429 kts 187°
2026-05-03 21:53 32.00923 -84.40226 32543 ft 427 kts 187°
2026-05-03 21:54 31.97953 -84.40166 32891 ft 425 kts 188°
2026-05-03 21:54 31.95007 -84.40109 33235 ft 423 kts 188°
2026-05-03 21:54 31.92077 -84.40053 33575 ft 421 kts 188°
2026-05-03 21:54 31.89154 -84.39996 33905 ft 419 kts 188°
2026-05-03 21:55 31.86250 -84.39940 34209 ft 417 kts 188°
2026-05-03 21:55 31.83345 -84.39883 34461 ft 416 kts 188°
2026-05-03 21:55 31.80456 -84.39826 34689 ft 415 kts 188°
2026-05-03 21:55 31.77567 -84.39769 34905 ft 415 kts 188°
2026-05-03 21:56 31.74679 -84.39714 35081 ft 415 kts 188°
2026-05-03 21:56 31.71807 -84.39661 35139 ft 414 kts 188°
2026-05-03 21:56 31.66033 -84.39544 35141 ft 415 kts 187°
2026-05-03 21:57 31.63095 -84.39123 35141 ft 427 kts 178°
2026-05-03 21:57 31.60182 -84.38374 35143 ft 428 kts 178°
2026-05-03 21:57 31.54360 -84.36879 35140 ft 428 kts 178°
2026-05-03 21:58 31.48545 -84.35408 35138 ft 428 kts 178°
2026-05-03 21:58 31.42717 -84.33943 35144 ft 428 kts 178°
2026-05-03 21:59 31.36894 -84.32481 35134 ft 428 kts 178°
2026-05-03 21:59 31.31065 -84.31010 35128 ft 429 kts 178°
2026-05-03 22:00 31.25238 -84.29538 35126 ft 429 kts 178°
2026-05-03 22:00 31.19402 -84.28074 35128 ft 429 kts 178°
2026-05-03 22:01 31.13566 -84.26611 35128 ft 429 kts 178°
2026-05-03 22:01 31.08676 -84.25378 35133 ft 429 kts 178°
2026-05-03 22:02 31.02832 -84.23907 35139 ft 430 kts 179°
2026-05-03 22:02 30.96990 -84.22448 35145 ft 430 kts 179°
2026-05-03 22:03 30.91142 -84.20991 35146 ft 429 kts 179°
2026-05-03 22:03 30.85302 -84.19539 35146 ft 429 kts 179°
2026-05-03 22:04 30.79454 -84.18083 35148 ft 430 kts 179°
2026-05-03 22:04 30.73604 -84.16618 35162 ft 430 kts 179°
2026-05-03 22:05 30.67748 -84.15158 35152 ft 431 kts 179°
2026-05-03 22:05 30.61887 -84.13706 35149 ft 431 kts 179°
2026-05-03 22:06 30.56027 -84.12249 35146 ft 431 kts 179°
2026-05-03 22:06 30.50163 -84.10786 35130 ft 431 kts 179°
2026-05-03 22:07 30.44271 -84.09327 35126 ft 431 kts 179°
2026-05-03 22:07 30.38407 -84.07775 35120 ft 439 kts 173°
2026-05-03 22:08 30.35536 -84.06418 35120 ft 454 kts 163°
2026-05-03 22:08 30.32760 -84.04603 35120 ft 459 kts 161°
2026-05-03 22:08 30.27233 -84.00907 35112 ft 459 kts 162°
2026-05-03 22:09 30.21695 -83.97223 35109 ft 459 kts 162°
2026-05-03 22:10 30.13376 -83.91719 35106 ft 460 kts 162°
2026-05-03 22:10 30.07826 -83.88053 35112 ft 460 kts 162°
2026-05-03 22:11 30.02280 -83.84394 35110 ft 460 kts 162°
2026-05-03 22:11 29.96720 -83.80728 35113 ft 460 kts 162°
2026-05-03 22:12 29.91124 -83.77041 35109 ft 460 kts 162°
2026-05-03 22:12 29.85570 -83.73384 35110 ft 459 kts 162°
2026-05-03 22:13 29.80022 -83.69736 35106 ft 459 kts 163°
2026-05-03 22:13 29.74469 -83.66094 35099 ft 459 kts 163°
2026-05-03 22:14 29.68920 -83.62467 35097 ft 459 kts 163°
2026-05-03 22:14 29.63357 -83.58829 35098 ft 460 kts 163°
2026-05-03 22:15 29.57801 -83.55197 35101 ft 460 kts 163°
2026-05-03 22:15 29.52238 -83.51564 35096 ft 460 kts 163°
2026-05-03 22:16 29.46674 -83.47937 35096 ft 460 kts 163°
2026-05-03 22:16 29.41106 -83.44309 35099 ft 460 kts 163°
2026-05-03 22:17 29.35539 -83.40693 35100 ft 460 kts 163°
2026-05-03 22:17 29.29968 -83.37081 35095 ft 460 kts 163°
2026-05-03 22:18 29.24365 -83.33599 35095 ft 450 kts 169°
2026-05-03 22:18 29.18608 -83.30676 35089 ft 449 kts 169°
2026-05-03 22:19 29.12887 -83.27788 35087 ft 449 kts 169°
2026-05-03 22:19 29.07170 -83.24892 35083 ft 449 kts 169°
2026-05-03 22:20 29.01454 -83.21990 35090 ft 449 kts 169°
2026-05-03 22:20 28.95743 -83.19100 35089 ft 449 kts 169°
2026-05-03 22:21 28.90034 -83.16217 35094 ft 449 kts 169°
2026-05-03 22:21 28.84326 -83.13337 35089 ft 448 kts 169°
2026-05-03 22:22 28.78625 -83.10463 35085 ft 448 kts 169°
2026-05-03 22:22 28.72886 -83.07578 35089 ft 448 kts 169°
2026-05-03 22:23 28.67181 -83.04715 35079 ft 448 kts 169°
2026-05-03 22:23 28.61482 -83.01859 35073 ft 448 kts 169°
2026-05-03 22:24 28.55781 -82.98998 35075 ft 448 kts 169°
2026-05-03 22:24 28.50076 -82.96145 35072 ft 448 kts 169°
2026-05-03 22:25 28.44362 -82.93293 35072 ft 449 kts 169°
2026-05-03 22:25 28.38610 -82.90413 35064 ft 449 kts 169°
2026-05-03 22:26 28.32886 -82.87551 35065 ft 449 kts 169°
2026-05-03 22:26 28.27156 -82.84705 35057 ft 450 kts 169°
2026-05-03 22:27 28.21418 -82.81853 35054 ft 451 kts 169°
2026-05-03 22:27 28.15674 -82.78984 35050 ft 451 kts 168°
2026-05-03 22:28 28.09922 -82.76127 35052 ft 451 kts 169°
2026-05-03 22:28 28.04163 -82.73274 35050 ft 452 kts 168°
2026-05-03 22:29 27.98321 -82.71177 35052 ft 429 kts 182°
2026-05-03 22:29 27.92430 -82.70034 35042 ft 429 kts 182°
2026-05-03 22:30 27.86538 -82.68878 35039 ft 430 kts 182°
2026-05-03 22:30 27.80588 -82.67701 35021 ft 431 kts 182°
2026-05-03 22:31 27.75673 -82.66730 35024 ft 432 kts 182°
2026-05-03 22:31 27.69750 -82.65562 35029 ft 433 kts 182°
2026-05-03 22:32 27.63819 -82.64394 35025 ft 433 kts 181°
2026-05-03 22:32 27.57863 -82.63222 35036 ft 434 kts 181°
2026-05-03 22:33 27.51914 -82.62019 35040 ft 437 kts 180°
2026-05-03 22:33 27.45906 -82.60374 35045 ft 444 kts 176°
2026-05-03 22:34 27.39990 -82.58500 35044 ft 445 kts 175°
2026-05-03 22:34 27.33977 -82.56637 35044 ft 444 kts 176°
2026-05-03 22:35 27.27994 -82.54885 35049 ft 445 kts 176°
2026-05-03 22:35 27.21996 -82.53159 35048 ft 445 kts 176°
2026-05-03 22:36 27.15989 -82.51417 35044 ft 446 kts 176°
2026-05-03 22:36 27.09980 -82.49653 35049 ft 447 kts 176°
2026-05-03 22:37 27.03970 -82.47888 35049 ft 447 kts 176°
2026-05-03 22:37 26.97932 -82.46130 35049 ft 448 kts 176°
2026-05-03 22:38 26.91967 -82.43888 35046 ft 466 kts 162°
2026-05-03 22:38 26.89167 -82.41958 35047 ft 479 kts 152°
2026-05-03 22:38 26.86589 -82.39546 35054 ft 486 kts 148°
2026-05-03 22:39 26.81456 -82.34586 34860 ft 489 kts 148°
2026-05-03 22:39 26.78825 -82.32066 34053 ft 495 kts 148°
2026-05-03 22:39 26.76217 -82.29573 33499 ft 492 kts 148°
2026-05-03 22:39 26.73619 -82.27086 32931 ft 490 kts 147°
2026-05-03 22:40 26.71035 -82.24614 32390 ft 488 kts 147°
2026-05-03 22:40 26.68464 -82.22161 31822 ft 486 kts 147°
2026-05-03 22:40 26.65897 -82.19715 31286 ft 484 kts 147°
2026-05-03 22:40 26.63346 -82.17281 30742 ft 481 kts 146°
2026-05-03 22:41 26.60806 -82.14854 30191 ft 480 kts 146°
2026-05-03 22:41 26.58275 -82.12435 29582 ft 475 kts 146°
2026-05-03 22:41 26.55801 -82.10066 29074 ft 464 kts 146°
2026-05-03 22:41 26.53365 -82.07736 28633 ft 458 kts 146°
2026-05-03 22:42 26.50971 -82.05422 28186 ft 453 kts 146°
2026-05-03 22:42 26.48629 -82.03095 27763 ft 448 kts 145°
2026-05-03 22:42 26.46328 -82.00767 27338 ft 444 kts 144°
2026-05-03 22:42 26.44062 -81.98455 26920 ft 440 kts 144°
2026-05-03 22:43 26.41819 -81.96165 26517 ft 435 kts 144°
2026-05-03 22:43 26.39599 -81.93906 26117 ft 430 kts 144°
2026-05-03 22:43 26.37363 -81.91644 25732 ft 426 kts 145°
2026-05-03 22:43 26.35171 -81.89438 25343 ft 423 kts 145°
2026-05-03 22:44 26.32990 -81.87251 24942 ft 420 kts 145°
2026-05-03 22:44 26.30826 -81.85085 24555 ft 417 kts 145°
2026-05-03 22:44 26.28677 -81.82935 24174 ft 414 kts 145°
2026-05-03 22:44 26.26538 -81.80796 23777 ft 412 kts 145°
2026-05-03 22:45 26.24518 -81.78515 23345 ft 416 kts 136°
2026-05-03 22:45 26.22852 -81.75870 22936 ft 419 kts 126°
2026-05-03 22:45 26.21538 -81.72964 22523 ft 419 kts 121°
2026-05-03 22:45 26.20290 -81.70057 22111 ft 415 kts 121°
2026-05-03 22:46 26.19043 -81.67173 21694 ft 412 kts 121°
2026-05-03 22:46 26.17797 -81.64314 21274 ft 408 kts 121°
2026-05-03 22:46 26.16563 -81.61486 20850 ft 406 kts 121°
2026-05-03 22:46 26.15308 -81.58622 20421 ft 414 kts 121°
2026-05-03 22:47 26.14046 -81.55741 19985 ft 414 kts 121°
2026-05-03 22:47 26.12791 -81.52867 19550 ft 412 kts 121°
2026-05-03 22:47 26.11539 -81.49998 19109 ft 410 kts 121°
2026-05-03 22:47 26.10283 -81.47121 18663 ft 407 kts 121°
2026-05-03 22:48 26.09048 -81.44296 18199 ft 405 kts 121°
2026-05-03 22:48 26.07819 -81.41487 17703 ft 403 kts 121°
2026-05-03 22:48 26.06596 -81.38687 17235 ft 401 kts 121°
2026-05-03 22:48 26.05388 -81.35917 16782 ft 397 kts 121°
2026-05-03 22:49 26.04186 -81.33157 16330 ft 394 kts 120°
2026-05-03 22:49 26.03001 -81.30430 15910 ft 390 kts 120°
2026-05-03 22:49 26.01827 -81.27729 15463 ft 387 kts 120°
2026-05-03 22:49 26.00659 -81.25048 15018 ft 384 kts 120°
2026-05-03 22:50 25.99500 -81.22387 14574 ft 381 kts 120°
2026-05-03 22:50 25.98349 -81.19751 14115 ft 378 kts 120°
2026-05-03 22:50 25.97201 -81.17130 13661 ft 375 kts 120°
2026-05-03 22:50 25.96067 -81.14538 13200 ft 372 kts 120°
2026-05-03 22:51 25.94943 -81.11968 12762 ft 368 kts 120°
2026-05-03 22:51 25.93831 -81.09426 12333 ft 364 kts 120°
2026-05-03 22:51 25.92722 -81.06898 11888 ft 363 kts 119°
2026-05-03 22:51 25.91625 -81.04393 11571 ft 357 kts 119°
2026-05-03 22:52 25.90597 -81.01963 11439 ft 338 kts 117°
2026-05-03 22:52 25.89685 -80.99629 11223 ft 323 kts 116°
2026-05-03 22:52 25.88822 -80.97341 10847 ft 321 kts 116°
2026-05-03 22:52 25.87962 -80.95045 10455 ft 320 kts 116°
2026-05-03 22:53 25.87107 -80.92764 10088 ft 313 kts 116°
2026-05-03 22:53 25.86281 -80.90580 9584 ft 310 kts 116°
2026-05-03 22:53 25.85441 -80.88379 9185 ft 309 kts 116°
2026-05-03 22:53 25.84590 -80.86159 8814 ft 309 kts 116°
2026-05-03 22:54 25.83748 -80.83969 8438 ft 309 kts 115°
2026-05-03 22:54 25.82909 -80.81793 8078 ft 307 kts 115°
2026-05-03 22:54 25.82065 -80.79606 7715 ft 307 kts 115°
2026-05-03 22:54 25.81228 -80.77434 7351 ft 306 kts 115°
2026-05-03 22:55 25.80397 -80.75276 6982 ft 301 kts 114°
2026-05-03 22:55 25.79578 -80.73151 6627 ft 299 kts 114°
2026-05-03 22:55 25.78758 -80.71028 6273 ft 297 kts 114°
2026-05-03 22:55 25.77945 -80.68929 5906 ft 295 kts 114°
2026-05-03 22:56 25.77305 -80.66780 5550 ft 294 kts 101°
2026-05-03 22:56 25.77168 -80.64513 5202 ft 296 kts 86°
2026-05-03 22:56 25.77288 -80.62236 4874 ft 294 kts 87°
2026-05-03 22:56 25.77397 -80.59989 4492 ft 289 kts 87°
2026-05-03 22:57 25.77499 -80.57775 4152 ft 284 kts 86°
2026-05-03 22:57 25.77589 -80.55652 4008 ft 267 kts 88°
2026-05-03 22:57 25.77666 -80.53655 3863 ft 251 kts 88°
2026-05-03 22:57 25.77746 -80.51753 3575 ft 244 kts 88°
2026-05-03 22:58 25.77826 -80.49914 3278 ft 235 kts 89°
2026-05-03 22:58 25.77903 -80.48130 3005 ft 226 kts 88°
2026-05-03 22:58 25.77977 -80.46416 2712 ft 219 kts 90°
2026-05-03 22:58 25.78048 -80.44739 2422 ft 218 kts 89°
2026-05-03 22:59 25.78119 -80.43078 2131 ft 215 kts 89°
2026-05-03 22:59 25.78190 -80.41409 1863 ft 210 kts 89°
2026-05-03 22:59 25.78257 -80.39851 1587 ft 194 kts 89°
2026-05-03 22:59 25.78318 -80.38421 1363 ft 177 kts 90°
2026-05-03 23:00 25.78374 -80.37088 1129 ft 171 kts 89°
2026-05-03 23:00 25.78428 -80.35788 910 ft 167 kts 88°
2026-05-03 23:00 25.78481 -80.34531 676 ft 159 kts 87°
2026-05-03 23:00 25.78531 -80.33339 472 ft 152 kts 86°
2026-05-03 23:01 25.78578 -80.32203 241 ft 144 kts 85°
2026-05-03 23:01 25.78625 -80.31091 45 ft 141 kts 85°
2026-05-03 23:01 25.78672 -80.30123 18 ft 108 kts 87°
2026-05-03 23:01 25.78698 -80.29438 16 ft 66 kts 88°
2026-05-03 23:02 25.78707 -80.29204 19 ft 26 kts 87°
2026-05-03 23:02 25.78715 -80.29019 17 ft 23 kts 86°
2026-05-03 23:02 25.78729 -80.28848 18 ft 22 kts 81°
2026-05-03 23:02 25.78772 -80.28726 17 ft 11 kts 51°
2026-05-03 23:03 25.78788 -80.28710 17 ft 0 kts 43°
2026-05-03 23:03 25.78788 -80.28709 17 ft 1 kts 43°
2026-05-03 23:03 25.78814 -80.28683 16 ft 8 kts 41°
2026-05-03 23:03 25.78861 -80.28638 16 ft 8 kts 40°
2026-05-03 23:04 25.78906 -80.28599 17 ft 8 kts 36°
2026-05-03 23:04 25.78950 -80.28565 17 ft 8 kts 35°
2026-05-03 23:04 25.79013 -80.28516 18 ft 13 kts 34°
2026-05-03 23:04 25.79091 -80.28460 16 ft 13 kts 33°
2026-05-03 23:05 25.79156 -80.28417 18 ft 4 kts 28°
2026-05-03 23:05 25.79183 -80.28405 18 ft 6 kts 12°
2026-05-03 23:05 25.79239 -80.28444 20 ft 14 kts 304°
2026-05-03 23:05 25.79294 -80.28536 18 ft 14 kts 316°
2026-05-03 23:06 25.79384 -80.28567 18 ft 13 kts 358°
2026-05-03 23:06 25.79452 -80.28569 19 ft 8 kts 358°
2026-05-03 23:06 25.79476 -80.28570 19 ft 0 kts 357°
2026-05-03 23:07 25.79481 -80.28571 19 ft 3 kts 357°
2026-05-03 23:07 25.79508 -80.28559 19 ft 4 kts 43°
2026-05-03 23:07 25.79515 -80.28523 19 ft 5 kts 89°
2026-05-03 23:08 25.79518 -80.28488 19 ft 2 kts 86°
2026-05-03 23:08 25.79519 -80.28481 19 ft 0 kts 84°